• In Lithuania
  • List of Countries
  • For 7 days
  • Water Temperature
  • Satellite Maps
  • Weather Map
  • Weather Widgets
  • user-avatar
    Login

    Hourly Weather Siauliai

    Today, 21 October, Saturday

    Time Temperature Precipitation Wind Pressure Humidity
    00:00 +5°C° 0.1 mm 3 mps 754 mmHg 83%
    01:00 +5°C° 0.1 mm 3 mps 754 mmHg 84%
    02:00 +5°C° 0 mm 3 mps 753 mmHg 86%
    03:00 +5°C° 0.3 mm 4 mps 753 mmHg 86%
    04:00 +5°C° 0.3 mm 4 mps 753 mmHg 87%
    05:00 +5°C° 0.3 mm 4 mps 753 mmHg 88%
    06:00 +5°C° 0.5 mm 4 mps 753 mmHg 88%
    07:00 +4°C° 0.5 mm 4 mps 753 mmHg 88%
    08:00 +4°C° 0 mm 4 mps 753 mmHg 88%
    09:00 +4°C° 0.2 mm 4 mps 753 mmHg 87%
    10:00 +5°C° 0.2 mm 4 mps 753 mmHg 85%
    11:00 +5°C° 0.2 mm 4 mps 753 mmHg 84%
    12:00 +6°C° 0 mm 4 mps 753 mmHg 81%
    13:00 +6°C° 0 mm 4 mps 753 mmHg 78%
    14:00 +7°C° 0 mm 4 mps 753 mmHg 75%
    15:00 +6°C° 0 mm 4 mps 753 mmHg 77%
    16:00 +5°C° 0 mm 4 mps 753 mmHg 79%
    17:00 +5°C° 0 mm 3 mps 753 mmHg 81%
    18:00 +4°C° 0 mm 3 mps 753 mmHg 82%
    19:00 +3°C° 0 mm 3 mps 754 mmHg 83%
    20:00 +2°C° 0 mm 3 mps 754 mmHg 85%
    21:00 +2°C° 0 mm 3 mps 754 mmHg 86%
    22:00 +1°C° 0 mm 3 mps 754 mmHg 87%
    23:00 +1°C° 0 mm 3 mps 754 mmHg 88%

    Tomorrow, 22 October, Sunday

    Time Temperature Precipitation Wind Pressure Humidity
    00:00 +1°C° 0 mm 2 mps 754 mmHg 89%
    01:00 +1°C° 0 mm 2 mps 755 mmHg 89%
    02:00 +1°C° 0 mm 2 mps 755 mmHg 90%
    03:00 -1°C° 0 mm 2 mps 755 mmHg 91%
    04:00 -1°C° 0 mm 2 mps 754 mmHg 92%
    05:00 -1°C° 0 mm 2 mps 754 mmHg 93%
    06:00 -1°C° 0 mm 2 mps 754 mmHg 92%
    07:00 -1°C° 0 mm 2 mps 754 mmHg 92%
    08:00 -1°C° 0 mm 2 mps 754 mmHg 91%
    09:00 +1°C° 0 mm 2 mps 754 mmHg 86%
    10:00 +2°C° 0 mm 3 mps 754 mmHg 81%
    11:00 +3°C° 0 mm 3 mps 754 mmHg 76%
    12:00 +4°C° 0 mm 3 mps 754 mmHg 73%
    13:00 +5°C° 0 mm 3 mps 753 mmHg 70%
    14:00 +5°C° 0 mm 3 mps 753 mmHg 68%
    15:00 +4°C° 0 mm 3 mps 753 mmHg 72%
    16:00 +4°C° 0 mm 2 mps 753 mmHg 76%
    17:00 +3°C° 0 mm 2 mps 752 mmHg 80%
    18:00 +3°C° 0 mm 2 mps 752 mmHg 82%
    19:00 +2°C° 0 mm 2 mps 753 mmHg 84%
    20:00 +2°C° 0 mm 2 mps 753 mmHg 85%
    21:00 +1°C° 0 mm 2 mps 753 mmHg 85%
    22:00 +1°C° 0 mm 2 mps 753 mmHg 85%
    23:00 +1°C° 0 mm 2 mps 753 mmHg 85%

    Day after tomorrow, 23 October, Monday

    Time Temperature Precipitation Wind Pressure Humidity
    00:00 +1°C° 0 mm 2 mps 753 mmHg 85%
    01:00 +1°C° 0 mm 2 mps 753 mmHg 86%
    02:00 +1°C° 0 mm 2 mps 753 mmHg 86%
    03:00 0°C° 0 mm 3 mps 753 mmHg 86%
    04:00 -1°C° 0 mm 3 mps 753 mmHg 86%
    05:00 -1°C° 0 mm 3 mps 753 mmHg 86%
    06:00 -1°C° 0 mm 3 mps 753 mmHg 85%
    07:00 0°C° 0 mm 3 mps 753 mmHg 83%
    08:00 0°C° 0 mm 3 mps 753 mmHg 82%
    09:00 +1°C° 0 mm 3 mps 753 mmHg 79%
    10:00 +1°C° 0 mm 4 mps 753 mmHg 76%
    11:00 +1°C° 0 mm 4 mps 754 mmHg 72%
    12:00 +3°C° 0 mm 4 mps 754 mmHg 70%
    13:00 +4°C° 0 mm 4 mps 754 mmHg 67%
    14:00 +5°C° 0 mm 4 mps 754 mmHg 65%
    15:00 +4°C° 0 mm 4 mps 754 mmHg 68%
    16:00 +3°C° 0 mm 4 mps 754 mmHg 71%
    17:00 +2°C° 0 mm 3 mps 755 mmHg 74%
    18:00 +2°C° 0 mm 3 mps 755 mmHg 75%
    19:00 0°C° 0 mm 4 mps 755 mmHg 76%
    20:00 0°C° 0 mm 4 mps 756 mmHg 77%
    21:00 -1°C° 0 mm 4 mps 756 mmHg 79%
    22:00 0°C° 0 mm 3 mps 757 mmHg 81%
    23:00 -1°C° 0 mm 3 mps 757 mmHg 82%

    24 October, Tuesday

    Time Temperature Precipitation Wind Pressure Humidity
    00:00 -1°C° 0 mm 3 mps 758 mmHg 83%
    01:00 -1°C° 0 mm 3 mps 758 mmHg 83%
    02:00 -1°C° 0 mm 3 mps 758 mmHg 83%
    03:00 -1°C° 0 mm 3 mps 758 mmHg 84%
    04:00 -2°C° 0 mm 3 mps 759 mmHg 84%
    05:00 -2°C° 0 mm 3 mps 759 mmHg 84%
    06:00 -2°C° 0 mm 3 mps 759 mmHg 85%
    07:00 -2°C° 0 mm 3 mps 759 mmHg 85%
    08:00 -2°C° 0 mm 3 mps 760 mmHg 85%
    09:00 -1°C° 0 mm 3 mps 760 mmHg 79%
    10:00 +1°C° 0 mm 3 mps 760 mmHg 74%
    11:00 +2°C° 0 mm 3 mps 761 mmHg 68%
    12:00 +3°C° 0 mm 3 mps 761 mmHg 66%
    13:00 +3°C° 0 mm 3 mps 761 mmHg 63%
    14:00 +4°C° 0 mm 3 mps 761 mmHg 61%
    15:00 +3°C° 0 mm 3 mps 761 mmHg 66%
    16:00 +2°C° 0 mm 3 mps 761 mmHg 71%
    17:00 +2°C° 0 mm 2 mps 761 mmHg 76%
    18:00 +1°C° 0 mm 2 mps 761 mmHg 79%
    19:00 0°C° 0 mm 3 mps 761 mmHg 81%
    20:00 -1°C° 0 mm 3 mps 762 mmHg 83%
    21:00 -1°C° 0 mm 3 mps 762 mmHg 84%
    22:00 -1°C° 0 mm 3 mps 762 mmHg 84%
    23:00 -1°C° 0 mm 3 mps 762 mmHg 85%

    25 October, Wednesday

    Time Temperature Precipitation Wind Pressure Humidity
    00:00 -2°C° 0 mm 3 mps 762 mmHg 85%
    01:00 -2°C° 0 mm 3 mps 762 mmHg 86%
    02:00 -2°C° 0 mm 3 mps 762 mmHg 86%
    03:00 -2°C° 0 mm 3 mps 761 mmHg 86%
    04:00 -2°C° 0 mm 3 mps 761 mmHg 85%
    05:00 -2°C° 0 mm 3 mps 761 mmHg 84%
    06:00 -2°C° 0 mm 4 mps 761 mmHg 83%
    07:00 -2°C° 0 mm 4 mps 760 mmHg 81%
    08:00 -2°C° 0 mm 4 mps 760 mmHg 79%
    09:00 -1°C° 0 mm 4 mps 760 mmHg 75%
    10:00 0°C° 0 mm 5 mps 760 mmHg 71%
    11:00 +1°C° 0 mm 5 mps 760 mmHg 66%
    12:00 +1°C° 0.1 mm 6 mps 759 mmHg 65%
    13:00 +2°C° 0.1 mm 6 mps 758 mmHg 63%
    14:00 +2°C° 0.1 mm 6 mps 758 mmHg 62%
    15:00 +2°C° 0.4 mm 6 mps 757 mmHg 65%
    16:00 +2°C° 0.4 mm 6 mps 756 mmHg 67%
    17:00 +2°C° 0.4 mm 6 mps 756 mmHg 70%
    18:00 0°C° 1.1 mm 7 mps 755 mmHg 73%
    19:00 0°C° 1.1 mm 7 mps 754 mmHg 76%
    20:00 0°C° 1.1 mm 8 mps 753 mmHg 79%
    21:00 0°C° 1.1 mm 7 mps 753 mmHg 83%
    22:00 +1°C° 1.1 mm 6 mps 752 mmHg 87%
    23:00 +1°C° 1.1 mm 6 mps 751 mmHg 92%

    26 October, Thursday

    Time Temperature Precipitation Wind Pressure Humidity
    00:00 +1°C° 0.3 mm 5 mps 751 mmHg 93%
    01:00 +2°C° 0.3 mm 5 mps 750 mmHg 95%
    02:00 +3°C° 0.3 mm 4 mps 750 mmHg 96%
    03:00 +4°C° 0 mm 3 mps 749 mmHg 97%
    04:00 +4°C° 0 mm 3 mps 749 mmHg 97%
    05:00 +5°C° 0 mm 2 mps 749 mmHg 98%
    06:00 +4°C° 0 mm 3 mps 749 mmHg 97%
    07:00 +5°C° 0 mm 3 mps 749 mmHg 97%
    08:00 +5°C° 0 mm 3 mps 749 mmHg 97%
    09:00 +7°C° 0 mm 3 mps 749 mmHg 95%
    10:00 +7°C° 0 mm 4 mps 749 mmHg 92%
    11:00 +8°C° 0 mm 5 mps 749 mmHg 90%
    12:00 +8°C° 0 mm 5 mps 749 mmHg 89%
    13:00 +8°C° 0 mm 5 mps 749 mmHg 89%
    14:00 +8°C° 0 mm 5 mps 748 mmHg 88%
    15:00 +8°C° 0.1 mm 5 mps 748 mmHg 89%
    16:00 +7°C° 0.1 mm 4 mps 748 mmHg 90%
    17:00 +7°C° 0.1 mm 4 mps 748 mmHg 91%
    18:00 +7°C° 0.1 mm 4 mps 748 mmHg 91%
    19:00 +7°C° 0.1 mm 4 mps 747 mmHg 92%
    20:00 +7°C° 0.1 mm 4 mps 747 mmHg 92%
    21:00 +6°C° 0 mm 4 mps 747 mmHg 93%
    22:00 +6°C° 0 mm 4 mps 746 mmHg 94%
    23:00 +5°C° 0 mm 4 mps 746 mmHg 94%
    Show more